User: anonymous   Login
Location: Auttagershofen
(48.1940°N, 10.0237°E)
Time: 04:15:14
(UTC+00:00)
Language:

Cosmos 1461 - Orbit

View from above orbital plane
View from above orbital plane
View from above satellite
View from above satellite

Ground track
Ground track

The orbit is defined by the following mean orbital elements,

1 14064U          26069.95478095 +.00000000 +00000-0 +73787-3 0 00003
2 14064  64.9900  16.1163 0052943 227.6568 132.0078 15.35092919    07
Epoch (UTC): 10 March 2026 22:54:53
Eccentricity: 0.0052943
inclination: 64.9900°
perigee height: 424 km
apogee height: 497 km
right ascension of ascending node: 16.1163°
argument of perigee: 227.6568°
revolutions per day: 15.35092919
mean anomaly at epoch: 132.0078°

The dashed part of the orbit path shows where the satellite is in the earth's shadow,  

DLR